sat.trackr.live / text

‹ back to catalog

GPS BIII-3 (PRN 23)

NORAD 45854 · 2020-041A

PAYLOAD ACTIVE UNKNOWN

§ Identity

Operator
Country
US
Launch date
2020-06-30
Launch site
AFETR
Launch vehicle
Mass (kg)
RCS (m²)

Purposes: earth_obs, nav

External: N2YO · Heavens-Above · Gunter

§ Orbital elements

Epoch: 2026-09-19T11:11:25.163808Z

Period
717.94 min
Inclination
56.7276°
Eccentricity
0.0068159
Mean motion
2.00573669 rev/d
Perigee alt
20,000.3 km
Apogee alt
20,362.3 km
Semi-major
26,559.5 km
B*
0.0000e+0
RAAN
25.2934°
Arg perigee
206.0899°
Mean anomaly
151.8924°
Rev number
4,592

§ Raw data

GPS BIII-3  (PRN 23)1 45854U 20041A   26262.46626347 -.00000076  00000+0  00000+0 0  99912 45854  56.7276  25.2934 0068159 206.0899 151.8924  2.00573669 45927

JSON: /api/v1/satellites/45854 · /tle

For live sub-satellite position, see the globe view (requires WebGL).

§ Visibility from observer

Set your observer location to see the next 7 days of passes ≥ 10°. The values pass through the URL so the page stays shareable.

No JS? Fill the form by hand. The geolocation button needs JavaScript.